MEV-1 (44625 NORAD) Tracking and Keplerian Element Data

This shows tracking and keplerian element data for the satellite.

Feedback or suggestion? Click here.




ElementValue
Catalog44625
NameMEV-1
Epoch Orbit25
Epoch Day311.625
Epoch Year2019
RAAN176.3167
Inclination6.9471
Eccentricity0.4640588
Argument of Perigee184.3083
Mean Anonmoly265.685
Mean Motion0.87853497
Decay Rate-1.75E-06
L11 44625U 19067B 19311.62500000 -.00000175 00000-0 00000+0 0 9995
L22 44625 6.9471 176.3167 4640588 184.3083 265.6850 0.87853497 253

Live tracking and technical data element details for MEV-1 (NORAD 44625). MEV-1 can be tracked NOW for your location showing map with azimuth and elevation plus other details from your city location.

Track the satellite on the map from your city or location and see movement details for azimuth, elevation, latitude, longitude, range, height, and movement on the map or in text.







IsCatalogInMostPopularTable: catalog: 44625, numindb: 10
Update: records affected: 1



GetName: 44625 MEV-1

Hit Count: updated at: Thu, 14 Nov 2019 05:41:55 GMT